Location: Asheville, NC
(35.6000°N, 82.5500°W)
Time: 17:16:14
(UTC-05:00)

SEEDS - Pass Details

Date: 09 January 2018
Orbit: 586 x 606 km, 97.5° (Epoch: 21 January)

Event Time Altitude Azimuth Distance (km) Brightness Sun altitude
Rises 19:58:19 0° 201° (SSW) 2,844 ? -28.6°
Reaches altitude 10° 20:00:59 10° 219° (SW) 1,944 ? -29.1°
Maximum altitude 20:04:03 20° 265° (W) 1,428 ? -29.7°
Drops below altitude 10° 20:07:09 10° 312° (NW) 1,950 ? -30.3°
Sets 20:09:50 0° 330° (NNW) 2,854 ? -30.9°
